Location: Bonn
(50.7330°N, 7.1000°E)
Time: 12:44:01
(UTC+02:00)

Daily predictions for brighter satellites

Satellite Brightness Start Highest point End
(mag) Time Altitude Azimuth Time Altitude Azimuth Time Altitude Azimuth
Cosmos 1697 Rocket 4.3 21:58:26 10° NNW 22:03:02 25° NE 22:07:35 10° E
Meteor 2-9 Rocket 4.2 21:59:51 10° N 22:05:17 72° ENE 22:10:50 10° SSE
SL-27 R/B 3.6 22:02:35 10° SSE 22:05:41 26° ESE 22:08:46 10° NE
ASTEX 1 3.4 22:00:49 10° SSE 22:05:43 76° E 22:10:37 10° N
Cosmos 1743 3.2 22:01:59 10° NNW 22:05:50 63° W 22:09:41 10° S
Aureole 1 Rocket 3.3 22:03:40 10° SSE 22:06:24 25° ESE 22:08:58 10° NE
Terra 3.4 22:02:47 10° ESE 22:06:29 23° ENE 22:10:11 10° N
SPOT 1/Viking Rocket 4.1 22:02:35 10° SE 22:07:29 45° ENE 22:12:23 10° N
CRYOSAT 2 4.4 22:08:06 10° SSE 22:12:57 78° E 22:17:49 10° N
Cosmos 405 3.0 22:11:09 10° N 22:14:44 70° ENE 22:18:18 10° SSE
Cosmos 2184 Rocket 4.3 22:09:13 10° NNW 22:15:36 77° W 22:21:54 10° S
Cosmos 2074 Rocket 4.3 22:09:49 10° NNW 22:16:04 74° W 22:22:18 10° S
Meteor 2-4 Rocket 3.9 22:11:05 10° S 22:16:38 62° E 22:22:24 10° NNE
Cosmos 1238 Rocket 4.2 22:13:37 10° S 22:20:16 65° E 22:26:41 10° NNE
Cosmos 1371 Rocket 4.1 22:15:52 10° NNW 22:21:14 74° ENE 22:26:32 10° SSE
MOS 1-B Rocket 4.1 22:15:44 10° SSE 22:21:31 90° WSW 22:28:07 10° NNW
Okean 1-7 Rocket 3.8 22:18:31 10° S 22:22:51 55° E 22:27:17 10° NNE
Cosmos 1346 2.9 22:20:49 10° SSW 22:23:35 84° WNW 22:26:22 10° N
Cosmos 1437 Rocket 3.0 22:20:03 10° N 22:23:48 54° ENE 22:27:35 10° SSE
Cosmos 923 Rocket 4.1 22:24:08 10° SSW 22:29:28 87° ESE 22:34:49 10° NNE
Okean 2 3.8 22:26:19 10° SSE 22:30:11 43° E 22:34:04 10° NNE
Cosmos 2228 3.8 22:31:50 10° N 22:35:53 37° ENE 22:39:24 13° SE
NOSS 2-2 (D) 3.5 22:32:08 10° SW 22:36:14 76° SE 22:41:13 10° NE
Cosmos 1666 3.9 22:33:24 10° NNW 22:36:57 40° W 22:40:29 10° SSW
Cosmos 1892 Rocket 4.3 22:33:04 10° SSE 22:37:04 35° E 22:41:06 10° NNE
CENTAUR R/B 4.0 22:31:41 10° NW 22:38:53 41° WSW 22:46:33 10° S
Cosmos 921 Rocket 3.4 22:37:24 10° NNW 22:41:53 57° ENE 22:45:39 14° SE
Meteor 1-23 Rocket 4.2 22:39:41 10° S 22:45:15 80° E 22:50:54 10° NNE
Cosmos 1606 Rocket 3.5 22:41:52 10° N 22:46:13 84° E 22:50:16 12° S
ATLAS CENTAUR R/B 3.9 22:46:16 10° NNW 22:48:02 13° NNE 22:49:45 10° NE
Meteor 1-15 Rocket 4.4 22:42:27 10° NNW 22:48:05 77° W 22:53:38 10° S
ERS-1 Rocket 4.2 22:43:29 10° SSW 22:48:11 39° W 22:52:54 10° NNW
ISS -2.3 22:45:58 10° S 22:48:18 18° SE 22:50:39 10° E
Cosmos 839 Rocket 4.3 22:42:02 10° NW 22:48:23 89° WSW 22:55:04 14° SE
USA 245 2.9 22:46:29 11° S 22:48:58 47° WSW 22:51:18 10° NNW
Cosmos 1980 Rocket 3.5 22:44:56 10° NNW 22:49:57 31° NE 22:54:56 10° ESE
SL-24 DEB 4.2 22:47:36 10° S 22:52:08 81° E 22:56:48 10° N
Cosmos 1818 4.0 22:46:50 10° SW 22:52:15 67° NW 22:57:44 10° NE
Lacrosse 5 rocket 3.1 22:48:43 10° WNW 22:53:02 37° N 22:57:22 10° ENE
NOSS 2-2 (C) 3.8 22:50:52 10° SW 22:55:02 80° NW 23:00:07 10° NE
H-2A R/B 2.0 22:50:58 12° SSE 22:55:36 87° WSW 23:00:41 10° NNW
Nadezhda 1 Rocket 4.4 22:50:31 10° SSW 22:56:52 71° WNW 23:03:18 10° N
Cosmos 1726 Rocket 3.5 22:52:55 10° N 22:57:17 89° W 23:01:02 14° S
Cosmos 2322 Rocket 4.3 22:53:36 10° N 22:57:36 19° NNE 23:01:36 10° ENE
Cosmos 2154 Rocket 4.4 22:52:51 10° NNW 22:59:10 68° W 23:05:27 10° S
DMSP B5D2-2 4.5 22:54:24 10° NNE 22:59:31 46° E 23:03:56 13° S
USA 234 3.9 22:55:25 10° E 23:01:47 57° NNE 23:08:09 10° WNW
Cosmos 2112 Rocket 4.2 22:57:06 10° SSW 23:02:19 77° WNW 23:07:33 10° NNE
Nimbus 7 Rocket 4.5 22:56:59 10° NNE 23:03:03 75° ESE 23:09:08 10° S
Cosmos 2058 Rocket 3.0 22:58:45 10° N 23:03:10 79° E 23:06:41 16° SSE
SL-8 Rocket 4.1 22:57:38 10° N 23:03:53 68° ENE 23:09:06 15° SSE
Cosmos 1624 Rocket 4.4 23:00:13 10° NNW 23:05:25 62° WSW 23:09:56 14° S
Cosmos 192 4.4 23:02:09 10° SSW 23:07:04 82° WNW 23:12:01 10° NNE
Cosmos 2366 rocket 4.3 23:01:40 10° N 23:07:45 55° ENE 23:12:29 17° SSE
Meteor 1-4 Rocket 3.0 23:07:26 10° N 23:11:00 47° ENE 23:13:05 21° SE
CARTOSAT-1 3.6 23:08:08 18° SSE 23:11:20 74° ENE 23:15:39 10° N
Cosmos 1515 3.6 23:08:10 13° S 23:11:27 77° E 23:15:17 10° NNE
SeaSat 1 3.9 23:07:54 10° ESE 23:12:09 30° NE 23:16:24 10° NNW
COSMOS 2406 3.8 23:08:08 10° SW 23:13:48 61° NW 23:19:28 10° NNE
Cosmos 1025 Rocket 3.7 23:09:41 10° SSW 23:13:52 54° WNW 23:18:04 10° N
ARGOS 4.1 23:09:36 10° S 23:14:44 43° W 23:19:55 10° NNW
Cosmos 2278 3.8 23:13:01 10° NNW 23:18:45 75° WSW 23:23:00 18° SSE
Cosmos 2056 Rocket 4.2 23:19:06 10° NW 23:24:04 47° WSW 23:28:07 15° S
Cosmos 2082 Rocket 2.8 23:22:42 18° SSE 23:26:16 37° ESE 23:31:24 10° NE
Landsat 7 4.2 23:25:02 15° S 23:28:49 58° W 23:33:32 10° NNW
SPOT 5 4.3 23:26:03 10° SSW 23:29:42 26° W 23:33:24 10° NW
PSLV R/B 2.8 23:29:12 33° SSE 23:30:19 84° ENE 23:33:08 10° NNW
Cosmos 1812 Rocket 4.0 23:27:45 10° N 23:32:09 52° ENE 23:34:43 23° SE
Cosmos 967 Rocket 4.5 23:28:00 10° SSW 23:34:08 62° ESE 23:40:20 10° NE
SL-08 R/B 4.4 23:28:01 10° N 23:34:11 82° E 23:38:36 20° SSE
CZ-4B R/B 3.9 23:31:30 10° NNE 23:36:19 46° E 23:39:18 22° SSE
H-2A R/B 2.4 23:33:27 20° S 23:36:35 66° WSW 23:41:07 10° NNW
Cosmos 2369 4.1 23:31:35 10° NW 23:37:12 56° WSW 23:41:09 19° S
CZ-2C R/B 4.5 23:34:11 10° NE 23:37:49 17° E 23:40:12 14° ESE
Cosmos 1805 4.4 23:34:33 10° N 23:38:06 32° ENE 23:39:56 21° ESE
CZ-4C R/B 3.3 23:38:48 28° SE 23:40:25 56° ENE 23:43:58 10° N
SL-27 R/B 4.5 23:37:34 10° WSW 23:40:50 30° WNW 23:44:07 10° N
Cosmos 2218 Rocket 4.0 23:37:31 10° NNW 23:43:41 78° W 23:48:15 19° S
Terra 2.2 23:40:33 19° S 23:43:52 58° W 23:48:36 10° NNW
Cosmos 1420 Rocket 4.0 23:40:27 10° NNW 23:45:47 84° ENE 23:49:00 24° SSE
SL-16 R/B 3.6 23:42:26 10° NNW 23:47:29 32° NE 23:52:31 10° ESE
Cosmos 1697 Rocket 2.7 23:42:02 10° NNW 23:47:42 84° WSW 23:51:13 24° SSE
Cosmos 1626 Rocket 3.5 23:46:00 25° S 23:48:25 66° E 23:52:43 10° NNE
Spot 4 3.8 23:47:55 24° SSE 23:50:48 88° WSW 23:55:40 10° NNW
Cosmos 1544 3.6 23:48:25 10° N 23:51:57 46° ENE 23:53:20 30° SE
ALOS 2 4.0 23:51:38 16° ESE 23:54:11 28° ENE 23:57:55 10° N
SME Rocket 3.8 23:51:44 22° SE 23:54:59 52° ENE 23:58:59 10° N
Cosmos 389 Rocket 3.8 23:52:49 10° N 23:55:54 28° ENE 23:57:11 22° ESE
